{"data":{"norad_id":63181,"intl_designator":"2025-047D","name":"PUNCH-WFI 2 (SMEX 15C)","alt_names":[],"object_type":"PAYLOAD","status":"ACTIVE","operator":null,"country":"US","launch_date":"2025-03-12","launch_site_code":"AFWTR","launch_vehicle":null,"mission":null,"orbit_class":"UNKNOWN","rcs_meters":null,"size_class":null,"mass_kg":null,"dimensions":null,"purposes":[],"wikipedia_slug":null,"has_3d_model":false,"image_url":null,"decayed_at":null,"tle_current":{"epoch":"2026-09-22T18:13:42.685248Z","epoch_age_seconds":115556,"freshness":"FRESH","line1":"1 63181U 25047D   26265.75952182  .00000331  00000+0  57387-4 0  9997","line2":"2 63181  97.9587  89.1225 0008345 223.2094 136.8461 14.74435373 82432","mean_motion":14.74435373,"eccentricity":0.0008345,"inclination_deg":97.9587,"raan_deg":89.1225,"arg_perigee_deg":223.2094,"mean_anomaly_deg":136.8461,"bstar":5.7387e-5,"rev_number":8243,"period_min":97.664504417719,"perigee_km":641.08174698548,"apogee_km":652.80660747027,"semimajor_km":7025.0811772279,"source":"CELESTRAK","updated_at":"2026-09-23T09:00:21.884484Z"}}}